Location: Maiden
(35.5760°N, 81.2120°W)
Time: 11:02:11
(UTC-04:00)

Vanguard 2 Rocket - All Passes

Search period start: 04 August 2020 00:00
Search period end: 14 August 2020 00:00
Orbit: 556 x 3325 km, 32.9° (Epoch: 03 August)

Date Brightness Start Highest point End Pass type
(mag) Time Alt. Az. Time Alt. Az. Time Alt. Az.
04 Aug - 01:49:14 10° W 02:05:39 58° SSW 02:25:07 10° SE visible
04 Aug - 04:07:32 10° W 04:22:27 28° SW 04:37:03 10° S visible
04 Aug - 18:12:22 10° S 18:17:35 23° SE 18:25:09 10° E daylight
04 Aug - 20:22:05 10° WSW 20:30:22 64° SSE 20:45:14 10° E daylight
04 Aug - 22:34:38 10° W 22:46:09 81° S 23:05:13 10° E visible
05 Aug - 00:48:42 10° W 01:03:42 66° SSW 01:23:48 10° SE visible
05 Aug - 03:05:07 10° W 03:21:02 37° SW 03:38:01 10° SSE visible
05 Aug - 05:32:55 10° WSW 05:36:46 11° SW 05:40:33 10° SW visible
05 Aug - 17:16:52 10° SE 17:18:39 11° SE 17:20:40 10° ESE daylight
05 Aug - 19:23:29 10° SW 19:30:24 49° SSE 19:42:33 10° E daylight
05 Aug - 21:35:15 10° W 21:45:02 79° S 22:02:18 10° E visible
05 Aug - 23:48:37 10° W 00:01:53 73° SSW 00:21:48 10° ESE visible
06 Aug - 02:03:44 10° W 02:19:22 46° SSW 02:37:57 10° SE visible
06 Aug - 04:24:14 10° W 04:35:46 19° SW 04:47:16 10° S visible
06 Aug - 18:25:19 10° SSW 18:30:58 33° SE 18:40:03 10° E daylight
06 Aug - 20:36:10 10° WSW 20:44:24 73° SSE 20:59:26 10° E visible
06 Aug - 22:48:55 10° W 23:00:22 77° S 23:19:17 10° ESE visible
07 Aug - 01:03:03 10° W 01:17:36 55° SSW 01:37:02 10° SE visible
07 Aug - 03:20:35 10° W 03:34:30 27° SW 03:49:26 10° S visible
07 Aug - 17:27:52 10° S 17:31:56 19° SE 17:37:28 10° E daylight
07 Aug - 19:37:20 10° WSW 19:44:16 62° SSE 19:56:48 10° E daylight
07 Aug - 21:49:30 10° W 21:59:15 79° S 22:16:28 10° E visible
08 Aug - 00:02:55 10° W 00:15:55 63° SSW 00:35:22 10° SE visible
08 Aug - 02:18:36 10° W 02:33:01 35° SW 02:50:05 10° SSE visible
08 Aug - 04:46:28 10° SW 04:49:14 10° SW 04:52:01 10° SW visible
08 Aug - 18:38:51 10° SW 18:44:38 46° SSE 18:54:30 10° E daylight
08 Aug - 20:50:22 10° W 20:58:34 78° S 21:13:38 10° E visible
08 Aug - 23:03:11 10° W 23:14:30 70° SSW 23:33:08 10° ESE visible
09 Aug - 01:17:38 10° W 01:31:26 44° SSW 01:49:42 10° SSE visible
09 Aug - 03:37:32 10° WSW 03:48:02 18° SW 03:59:14 10° S visible
09 Aug - 17:40:46 10° SSW 17:45:25 29° SE 17:52:29 10° E daylight
09 Aug - 19:51:26 10° WSW 19:58:21 71° SSE 20:11:01 10° E daylight
09 Aug - 22:03:47 10° W 22:13:27 75° S 22:30:31 10° ESE visible
10 Aug - 00:17:20 10° W 00:29:55 52° SSW 00:48:29 10° SE visible
10 Aug - 02:34:13 10° W 02:46:42 25° SW 03:01:13 10° S visible
10 Aug - 16:43:27 10° S 16:46:30 16° SE 16:50:19 10° ESE daylight
10 Aug - 18:52:44 10° WSW 18:58:33 59° SSE 19:08:47 10° E daylight
10 Aug - 21:04:37 10° W 21:12:48 78° S 21:27:47 10° E visible
10 Aug - 23:17:32 10° W 23:28:37 60° SSW 23:46:38 10° SE visible
11 Aug - 01:32:37 10° W 01:45:17 33° SSW 02:01:37 10° SSE visible
11 Aug - 17:54:17 10° SW 17:59:10 42° SSE 18:07:01 10° E daylight
11 Aug - 20:05:40 10° W 20:12:32 76° S 20:25:13 10° E daylight
11 Aug - 22:18:06 10° W 22:27:39 66° SSW 22:44:19 10° ESE visible
12 Aug - 00:32:00 10° W 00:43:54 40° SSW 01:01:00 10° SSE visible
12 Aug - 02:51:35 10° WSW 03:00:30 16° SW 03:10:26 10° S visible
12 Aug - 16:56:13 10° SSW 17:00:06 26° SSE 17:05:30 10° E daylight
12 Aug - 19:06:51 10° WSW 19:12:40 69° S 19:23:02 10° E daylight
12 Aug - 21:18:54 10° W 21:27:02 72° S 21:41:48 10° ESE visible
12 Aug - 23:32:00 10° W 23:42:43 48° SSW 23:59:38 10° SE visible
13 Aug - 01:48:28 10° W 01:59:11 23° SW 02:12:24 10° S visible
13 Aug - 15:58:58 10° S 16:01:12 14° SE 16:03:45 10° ESE daylight
13 Aug - 18:08:13 10° WSW 18:13:08 56° SSE 18:21:19 10° E daylight
13 Aug - 20:19:56 10° W 20:26:47 75° S 20:39:22 10° E visible
13 Aug - 22:32:28 10° W 22:41:48 55° SSW 22:57:45 10° SE visible
